OneWeb SL0018

operational
NORAD ID: 45434 Int'l Des: 2020-020 Owner: ONEWEB Country: UK Constellation: oneweb
LEOCIRCULARPOLARONEWEB_TYPE

Über OneWeb SL0018

Beschreibung wird geladen...

Live-Position

3D-Globus wird geladen...

Nächste Überflüge

Höhenverlauf

Altitude vs Time

uPlot chart will show altitude changes over time

Zweizeiliger Elementsatz

1 45434U 20020L 25350.94491451 .00000542 00000-0 14927-2 0 9992
2 45434 87.8861 57.3527 0001888 99.5419 260.5922 13.11419259278741
Epoch: 16. Dez. 2025 • Age: 11 hours

Aktueller Status

Höhe 1224.6 km
Geschwindigkeit 7.25 km/s
Subsatellitenpunkt 49.51°N, 175.29°W
Startdatum 21. März 2020
Alter 5.7 years
Typ internet

Technische Details

Klassifizierung Payload
Masse 148.00 kg
Trockenmasse 140.00 kg
Gesamtmasse 148.00 kg
Länge 1.30 m
Durchmesser 1.00 m
Spannweite 5.00 m
Form Trapezoid+2 pan
Hersteller ONEWUS
Bus-Typ ARROW
Phasenstatus In Orbit
Besitzer/Staat ONEWEB/UK

Große Konstellationen

Loading constellations...